Location: Champseau
(45.8333°N, 1.7667°E)
Time: 03:22:50
(UTC+00:00)

SPOT 3 Rocket - Pass Details

Date: 18 April 2021
Orbit: 778 x 795 km, 98.7° (Epoch: 10 May)

Event Time Altitude Azimuth Distance (km) Brightness Sun altitude
Exits shadow 20:03:44 17° 143° (SE) 1,894 5.0 -13.5°
Maximum altitude 20:07:35 55° 70° (ENE) 942 3.7 -14.0°
Drops below altitude 10° 20:12:39 10° 354° (N) 2,356 6.6 -14.8°
Sets 20:15:01 0° 350° (N) 3,286 7.5 -15.1°
